Content
SEND FEEDBACK

Daily
Averages
Monthly
Summary
United States of America

OKLAUNION, TEXAS


Home > North America > United States > Texas
Elevation: 1249 feet     Latitude: 34 05N     Longitude: 099 18W

WEATHER
 
SELECT A DAY
Number of Records: 261,484;   Date Range: 6/6/03 - 8/12/14
 
SHARE

PRINT THIS DATA

[ ← Previous Day ]
WEATHER ALMANAC - JANUARY 23, 2013
[ Next Day → ]
[ °C ]   °F
Weather ElementAverageHighLow
Temperature49.5 °F70.3 °F (4:35 pm) (6:15 pm)
Dewpoint39.6 °F48.6 °F (4:15 pm) (7:00 pm)
Humidity70.9 %92 % (7:55 am)43 % (4:55 pm)
Barometer30.16 in30.23 in (10:35 am)30.08 in (5:35 pm)
Wind Speed5.4 mph12.7 mph (4:35 pm)
Weather ElementAverage
Visibility8.9 mi
Wind DirectionSE (133.2 °)

Weather ElementTotal
Precipitation---
Heating Degree Days29.9 (Base 65)
Averaged from 69 records on January 23, 2013
WEATHER CONDITIONS BREAKOUT
WIND DIRECTION BREAKOUT
WEATHER BY HOUR - JANUARY 23, 2013
[ °C ]   °F
Local TimeTemperatureDewpointHumidityBarometerVisibilityWind DirectionWind SpeedGust SpeedPrecipitationEventsConditions
12:35 AM43.0 °F34.9 °F73 %30.18 in10.0 miNE (50°)4.6 mphClear
12:55 AM41.9 °F34.2 °F74 %30.18 in10.0 miENE (60°)8.1 mphClear
1:15 AM41.9 °F34.5 °F75 %30.19 in10.0 miNE (40°)6.9 mphClear
1:35 AM41.5 °F34.7 °F77 %30.18 in10.0 miEast (90°)3.5 mphClear
1:55 AM42.6 °F35.8 °F77 %30.18 in10.0 miESE (110°)3.5 mphClear
2:15 AM41.9 °F35.1 °F77 %30.18 in10.0 miESE (110°)3.5 mphClear
2:35 AM40.8 °F34.5 °F78 %30.18 in10.0 miCalmClear
2:55 AM40.3 °F34.2 °F79 %30.18 in10.0 miCalmClear
3:15 AM39.2 °F33.3 °F79 %30.18 in10.0 miSouth (180°)4.6 mphClear
3:35 AM38.1 °F32.7 °F81 %30.19 in10.0 miCalmClear
3:55 AM37.4 °F32.7 °F83 %30.20 in10.0 miNorth (10°)6.9 mphClear
4:15 AM36.5 °F32.4 °F85 %30.18 in10.0 miSE (130°)3.5 mphClear
4:35 AM36.9 °F32.4 °F84 %30.18 in10.0 miSouth (180°)5.8 mphClear
4:55 AM36.0 °F32.0 °F86 %30.18 in10.0 miCalmClear
5:15 AM35.4 °F31.8 °F87 %30.18 in10.0 miSSW (200°)4.6 mphClear
5:35 AM34.5 °F31.3 °F88 %30.18 in10.0 miSSW (210°)5.8 mphClear
5:55 AM34.0 °F30.9 °F89 %30.18 in10.0 miSW (230°)5.8 mphClear
6:15 AM34.0 °F31.3 °F90 %30.18 in10.0 miSW (230°)9.2 mphClear
6:55 AM34.5 °F32.0 °F90 %30.18 in7.0 miSW (230°)10.4 mphClear
7:15 AM34.3 °F32.0 °F91 %30.19 in7.0 miWSW (240°)9.2 mphClear
7:35 AM34.3 °F31.8 °F90 %30.19 in7.0 miCalmClear
7:55 AM33.6 °F31.5 °F92 %30.20 in5.0 miWest (260°)3.5 mphClear
8:15 AM34.2 °F32.0 °F92 %30.20 in5.0 miSW (230°)6.9 mphScattered Clouds
8:35 AM36.1 °F33.6 °F91 %30.20 in5.0 miSW (230°)8.1 mphScattered Clouds
8:55 AM38.8 °F36.5 °F91 %30.21 in0.5 miWSW (240°)6.9 mphOvercast
9:15 AM41.0 °F38.8 °F92 %30.21 in5.0 miCalmMostly Cloudy
9:35 AM43.5 °F40.1 °F88 %30.22 in7.0 miCalmOvercast
9:55 AM44.6 °F41.2 °F88 %30.22 in0.8 miSouth (190°)4.6 mphOvercast
10:15 AM45.0 °F42.8 °F92 %30.22 in1.8 miSSW (210°)3.5 mphOvercast
10:35 AM46.9 °F44.4 °F91 %30.23 in2.5 miSouth (190°)4.6 mphOvercast
10:55 AM48.6 °F45.0 °F87 %30.23 in5.0 miSW (220°)3.5 mphMostly Cloudy
11:15 AM50.9 °F45.3 °F81 %30.23 in7.0 miWSW (240°)5.8 mphScattered Clouds
11:35 AM52.7 °F45.1 °F75 %30.23 in10.0 miWest (280°)4.6 mphClear
11:55 AM54.9 °F45.3 °F70 %30.21 in10.0 miCalmClear
12:15 PM56.8 °F45.3 °F65 %30.20 in10.0 miSSW (210°)4.6 mphClear
12:35 PM58.8 °F46.4 °F63 %30.19 in10.0 miSouth (190°)6.9 mphClear
12:55 PM61.5 °F47.3 °F60 %30.18 in10.0 miSouth (190°)8.1 mphClear
1:15 PM62.8 °F45.9 °F54 %30.17 in10.0 miSSW (200°)9.2 mphClear
1:35 PM64.0 °F45.3 °F51 %30.16 in10.0 miSSW (200°)10.4 mphClear
1:55 PM65.5 °F46.6 °F50 %30.15 in10.0 miSSW (200°)11.5 mphClear
2:15 PM66.7 °F46.9 °F49 %30.14 in10.0 miSSW (200°)11.5 mphClear
2:35 PM67.3 °F48.0 °F50 %30.13 in10.0 miSouth (190°)9.2 mphClear
2:55 PM68.0 °F48.2 °F49 %30.13 in10.0 miSSW (210°)8.1 mphClear
3:15 PM68.9 °F47.7 °F47 %30.12 in10.0 miSouth (190°)8.1 mphClear
3:35 PM70.0 °F47.1 °F44 %30.12 in10.0 miSSW (200°)11.5 mphClear
3:55 PM70.2 °F47.3 °F44 %30.12 in10.0 miSE (140°)8.1 mphClear
4:15 PM70.2 °F48.6 °F46 %30.11 in10.0 miSSE (160°)10.4 mphClear
4:35 PM70.3 °F48.2 °F45 %30.10 in10.0 miSouth (170°)12.7 mphClear
4:55 PM70.3 °F47.1 °F43 %30.10 in10.0 miSouth (190°)10.4 mphClear
5:15 PM70.0 °F46.2 °F43 %30.09 in10.0 miSouth (180°)9.2 mphClear
5:35 PM69.1 °F46.0 °F44 %30.08 in10.0 miSouth (190°)9.2 mphClear
5:55 PM66.2 °F45.1 °F47 %30.08 in10.0 miSouth (190°)8.1 mphClear
6:15 PM0.0 °F0.0 °F30.08 in10.0 miSSW (200°)8.1 mph
6:35 PM60.8 °F44.1 °F54 %30.09 in10.0 miSSW (200°)6.9 mphClear
6:55 PM60.3 °F43.7 °F54 %30.10 in10.0 miCalmClear
7:15 PM59.4 °F43.5 °F56 %30.10 in10.0 miCalmClear
7:35 PM55.2 °F41.9 °F61 %30.12 in10.0 miNE (40°)9.2 mphClear
7:55 PM54.1 °F42.4 °F65 %30.12 in10.0 miEast (80°)5.8 mphClear
8:15 PM53.4 °F42.4 °F66 %30.12 in10.0 miNE (40°)4.6 mphClear
8:35 PM51.3 °F42.1 °F71 %30.11 in10.0 miENE (70°)3.5 mphClear
8:55 PM52.3 °F42.8 °F70 %30.11 in10.0 miESE (120°)3.5 mphClear
9:15 PM55.2 °F42.6 °F63 %30.11 in10.0 miSE (130°)4.6 mphClear
9:35 PM55.4 °F42.1 °F61 %30.11 in10.0 miEast (80°)4.6 mphClear
9:55 PM52.0 °F41.5 °F68 %30.11 in10.0 miESE (120°)3.5 mphClear
10:15 PM51.3 °F41.0 °F68 %30.11 in10.0 miESE (120°)3.5 mphClear
10:35 PM49.6 °F40.8 °F72 %30.11 in10.0 miCalmClear
10:55 PM47.8 °F40.5 °F76 %30.11 in10.0 miCalmClear
11:15 PM46.6 °F40.1 °F78 %30.11 in10.0 miCalmClear
11:55 PM46.9 °F40.8 °F79 %30.11 in10.0 miCalmClear
Hourly data recorded from KF05, located miles away from Oklaunion, Texas







STORIES FROM OUR PARTNERS